West Vancouver, British Columbia

6:01 PM PDT on May 25, 2018 (GMT -0700)
West Vancouver

Weather History for CWWA - September, 2012

Change the Weather History Date:

Sunday, September 30, 2012

  Actual Average Record
Temperature  
Mean Temperature 54 °F -  
Max Temperature 61 °F - - ()
Min Temperature 47 °F - - ()
Degree Days  
Heating Degree Days 11    
Growing Degree Days 4 (Base 50)    
Moisture  
Dew Point 46 °F    
Average Humidity 74    
Maximum Humidity 83    
Minimum Humidity 59    
Precipitation  
Precipitation 0.00 in - - ()
Sea Level Pressure  
Sea Level Pressure 30.38 in    
Wind  
Wind Speed 2 mph ()    
Max Wind Speed 4 mph    
Max Gust Speed -    
T = Trace of Precipitation, MM = Missing Value Source: Averaged Metar Reports

Daily Weather History Graph

Daily Weather History Graph

Search for Another Location

Airport or City:

Astronomy

Sep. 30, 2012 Rise Set
Actual Time 7:11 AM PDT 6:52 PM PDT
Civil Twilight 6:40 AM PDT 7:23 PM PDT
Nautical Twilight 6:03 AM PDT 8:00 PM PDT
Astronomical Twilight 5:25 AM PDT 8:38 PM PDT
Moon 6:48 PM PDT (9/30) 7:56 AM PDT (9/30)
Length of Visible Light 12h 43m
Length of Day
11h 40m
Full, 100% of the Moon is Illuminated
Sep 30
Full
Oct 8
Last Quarter
Oct 15
New
Oct 21
First Quarter
Oct 29
Full

Hourly Weather History & Observations

Time (PDT) Temp. Dew Point Humidity Pressure Visibility Wind Dir Wind Speed Gust Speed Precip Events Conditions
12:00 AM 49.1 °F 40.3 °F 72% 30.30 in - North 1.2 mph - N/A   Unknown
1:00 AM 49.3 °F 42.3 °F 77% 30.31 in - NE 2.3 mph - N/A   Unknown
2:00 AM 48.4 °F 41.7 °F 78% 30.31 in - NNE 1.2 mph - N/A   Unknown
3:00 AM 48.6 °F 42.3 °F 79% 30.33 in - NNE 2.3 mph - N/A   Unknown
4:00 AM 48.4 °F 42.6 °F 80% 30.33 in - North 2.3 mph - N/A   Unknown
5:00 AM 48 °F 43 °F 78% 30.34 in - North 2.3 mph - -  
5:00 AM 48.4 °F 43.3 °F 83% 30.34 in - North 2.3 mph - N/A   Unknown
6:00 AM 49.1 °F 42.6 °F 78% 30.36 in - North 3.5 mph - N/A   Unknown
7:00 AM 48.7 °F 43.0 °F 80% 30.38 in - North 3.5 mph - N/A   Unknown
8:00 AM 49.6 °F 44.1 °F 81% 30.39 in - NNE 2.3 mph - N/A   Unknown
9:00 AM 50.9 °F 46.0 °F 83% 30.41 in - Calm Calm - N/A   Unknown
10:00 AM 53.6 °F 47.5 °F 80% 30.41 in - South 1.2 mph - N/A   Unknown
11:00 AM 58 °F 48 °F 59% 30.42 in - WSW 1.2 mph - -  
11:00 AM 58.3 °F 47.7 °F 68% 30.42 in - WSW 1.2 mph - N/A   Unknown
12:00 PM 57.0 °F 48.2 °F 72% 30.42 in - South 2.3 mph - N/A   Unknown
1:00 PM 56.8 °F 48.4 °F 73% 30.41 in - SSW 2.3 mph - N/A   Unknown
2:00 PM 60.3 °F 50.2 °F 69% 30.41 in - South 2.3 mph - N/A   Unknown
3:00 PM 61.7 °F 49.6 °F 65% 30.40 in - SSW 1.2 mph - N/A   Unknown
4:00 PM 60.4 °F 50.0 °F 68% 30.39 in - South 1.2 mph - N/A   Unknown
5:00 PM 57 °F 49 °F 68% 30.39 in - SSW 1.2 mph - -  
5:00 PM 57.4 °F 49.5 °F 75% 30.39 in - SSW 1.2 mph - N/A   Unknown
6:00 PM 55.2 °F 49.5 °F 81% 30.39 in - SSW 1.2 mph - N/A   Unknown
7:00 PM 54.1 °F 46.6 °F 76% 30.39 in - NNE 1.2 mph - N/A   Unknown
8:00 PM 54.1 °F 45.3 °F 72% 30.39 in - North 1.2 mph - N/A   Unknown
9:00 PM 53.2 °F 44.6 °F 72% 30.38 in - NNE 1.2 mph - N/A   Unknown
10:00 PM 55.0 °F 45.3 °F 70% 30.38 in - North 1.2 mph - N/A   Unknown
11:00 PM 55 °F 46 °F 64% 30.37 in - Calm Calm - -  
11:00 PM 55.0 °F 46.4 °F 73% 30.37 in - Calm Calm - N/A   Unknown